FW2346 Weather Reports


Display with metric or nautical units.
time (UTC)temp
F
wind
direction
speed
MPH
gust
MPH
rain 1hr
in
rain 24hr
in
rain mn
in
humidity
%
barometer
mb
20260903004603 81 18 0.0 0.0 0.00 0.00 0.00 56 1016.7
20260903003109 81 18 0.0 1.0 0.00 0.00 0.00 56 1016.6
20260903001525 81 25 0.0 1.0 0.00 0.00 0.00 56 1016.6
20260903000042 82 327 0.0 4.0 0.00 0.00 0.00 55 1016.7
20260902234533 82 330 1.0 4.0 0.00 0.00 0.00 55 1016.5
20260902233012 82 338 0.0 3.0 0.00 0.00 0.00 55 1016.7
20260902231513 82 312 1.0 3.0 0.00 0.00 0.00 55 1016.8
20260902230007 83 281 0.0 4.0 0.00 0.00 0.00 55 1016.8
20260902224512 83 311 2.0 4.0 0.00 0.00 0.00 55 1016.8
20260902223010 84 304 1.0 3.0 0.00 0.00 0.00 54 1016.8
20260902221610 83 294 1.0 2.0 0.00 0.00 0.00 55 1016.9
20260902220050 83 268 0.0 1.0 0.00 0.00 0.00 57 1016.9
20260902214620 84 267 0.0 3.0 0.00 0.00 0.00 57 1016.8
20260902213021 84 261 0.0 2.0 0.00 0.00 0.00 57 1016.7
20260902211508 84 265 0.0 1.0 0.00 0.00 0.00 56 1016.6
20260902210006 84 266 0.0 1.0 0.00 0.00 0.00 56 1016.5
20260902204512 85 224 0.0 1.0 0.00 0.00 0.00 56 1016.4
20260902203008 85 220 0.0 1.0 0.00 0.00 0.00 55 1016.3
20260902201523 86 220 0.0 3.0 0.00 0.00 0.00 54 1016.1
20260902200004 87 200 0.0 5.0 0.00 0.00 0.00 53 1016.0
20260902194510 87 230 2.0 4.0 0.00 0.00 0.00 51 1015.7
20260902193135 88 239 2.0 5.0 0.00 0.00 0.00 50 1015.4
20260902191520 89 218 2.0 8.0 0.00 0.00 0.00 49 1015.2
20260902190106 90 183 4.0 8.0 0.00 0.00 0.00 47 1015.2
20260902184524 92 212 4.0 10.0 0.00 0.00 0.00 43 1015.2
20260902183034 95 188 4.0 10.0 0.00 0.00 0.00 39 1015.2
20260902181554 97 164 6.0 10.0 0.00 0.00 0.00 40 1015.2
20260902180006 100 156 1.0 4.0 0.00 0.00 0.00 33 1015.0
20260902174518 100 201 2.0 6.0 0.00 0.00 0.00 34 1015.1
20260902173056 100 129 3.0 5.0 0.00 0.00 0.00 33 1015.0
20260902171556 100 181 2.0 5.0 0.00 0.00 0.00 32 1015.0
20260902170002 101 188 1.0 5.0 0.00 0.00 0.00 32 1015.1
20260902164538 100 122 3.0 9.0 0.00 0.00 0.00 33 1015.0
20260902163040 100 190 3.0 9.0 0.00 0.00 0.00 34 1015.1
20260902161538 100 173 2.0 10.0 0.00 0.00 0.00 33 1015.2
20260902160052 101 180 2.0 7.0 0.00 0.00 0.00 31 1015.3
20260902154556 100 198 4.0 10.0 0.00 0.00 0.00 32 1015.2
20260902153048 100 170 6.0 11.0 0.00 0.00 0.00 32 1015.2
20260902151519 100 227 5.0 11.0 0.00 0.00 0.00 33 1015.3
20260902150018 100 208 7.0 14.0 0.00 0.00 0.00 34 1015.3
20260902144634 101 171 4.0 13.0 0.00 0.00 0.00 35 1015.2
20260902143020 100 178 2.0 5.0 0.00 0.00 0.00 36 1015.4
20260902141602 98 271 2.0 7.0 0.00 0.00 0.00 36 1015.6
20260902140107 99 5 0.0 6.0 0.00 0.00 0.00 36 1015.6
20260902134554 98 119 4.0 8.0 0.00 0.00 0.00 37 1015.8
20260902133057 97 141 3.0 8.0 0.00 0.00 0.00 39 1016.0
20260902131558 98 236 1.0 6.0 0.00 0.00 0.00 39 1016.0
20260902130041 97 268 2.0 5.0 0.00 0.00 0.00 40 1016.0
20260902124526 94 65 0.0 9.0 0.00 0.00 0.00 43 1016.2
20260902123009 94 110 4.0 8.0 0.00 0.00 0.00 44 1016.3
20260902121509 93 356 0.0 6.0 0.00 0.00 0.00 45 1016.4
20260902120002 92 85 1.0 8.0 0.00 0.00 0.00 46 1016.5
20260902114609 90 77 1.0 9.0 0.00 0.00 0.00 49 1016.6
20260902113106 90 53 1.0 11.0 0.00 0.00 0.00 47 1016.8
20260902111553 89 59 4.0 9.0 0.00 0.00 0.00 48 1017.0
20260902110046 88 81 6.0 11.0 0.00 0.00 0.00 49 1017.1
20260902104611 87 26 6.0 11.0 0.00 0.00 0.00 50 1017.2
20260902103058 87 54 6.0 11.0 0.00 0.00 0.00 49 1017.4
20260902101538 86 44 5.0 11.0 0.00 0.00 0.00 47 1017.6
20260902100028 86 40 4.0 9.0 0.00 0.00 0.00 42 1017.6
20260902094529 85 65 5.0 10.0 0.00 0.00 0.00 41 1017.6
20260902093008 84 56 4.0 9.0 0.00 0.00 0.00 41 1017.4
20260902091537 82 23 5.0 10.0 0.00 0.00 0.00 43 1017.3
20260902090016 82 51 3.0 7.0 0.00 0.00 0.00 43 1017.3
20260902084542 81 24 4.0 7.0 0.00 0.00 0.00 45 1017.3
20260902083047 80 340 3.0 6.0 0.00 0.00 0.00 49 1017.2
20260902081514 78 357 4.0 6.0 0.00 0.00 0.00 52 1017.3
20260902080010 77 44 3.0 8.0 0.00 0.00 0.00 55 1017.4
20260902074512 76 347 0.0 7.0 0.00 0.00 0.00 58 1017.3
20260902073004 75 72 4.0 9.0 0.00 0.00 0.00 59 1017.0
20260902071514 73 32 4.0 8.0 0.00 0.00 0.00 62 1017.0
20260902070014 73 76 3.0 7.0 0.00 0.00 0.00 60 1017.0
20260902064518 72 48 3.0 10.0 0.00 0.00 0.00 57 1016.8
20260902063014 72 43 6.0 9.0 0.00 0.00 0.00 54 1016.7
20260902061535 72 26 3.0 5.0 0.00 0.00 0.00 55 1016.7
20260902060107 71 46 1.0 5.0 0.00 0.00 0.00 58 1016.7
20260902054534 70 46 3.0 6.0 0.00 0.00 0.00 59 1016.6
20260902053003 71 56 2.0 5.0 0.00 0.00 0.00 57 1016.6
20260902051505 71 49 1.0 5.0 0.00 0.00 0.00 57 1016.7
20260902050109 73 70 1.0 3.0 0.00 0.00 0.00 54 1016.6
20260902044605 72 352 0.0 1.0 0.00 0.00 0.00 54 1016.6
20260902043116 72 352 0.0 1.0 0.00 0.00 0.00 55 1016.2
20260902041557 72 340 0.0 1.0 0.00 0.00 0.00 55 1016.2
20260902040058 73 339 0.0 1.0 0.00 0.00 0.00 56 1016.2
20260902034518 73 176 0.0 0.0 0.00 0.00 0.00 53 1016.3
20260902033024 74 169 0.0 0.0 0.00 0.00 0.00 52 1016.1
20260902031536 74 169 0.0 0.0 0.00 0.00 0.00 51 1016.2
20260902030030 73 169 0.0 0.0 0.00 0.00 0.00 55 1016.2
20260902024542 74 169 0.0 2.0 0.00 0.00 0.00 55 1016.4
20260902023117 74 169 0.0 2.0 0.00 0.00 0.00 52 1016.5
20260902021505 75 215 0.0 1.0 0.00 0.00 0.00 50 1016.7
20260902020012 75 172 0.0 0.0 0.00 0.00 0.00 50 1016.7
20260902014518 74 163 0.0 1.0 0.00 0.00 0.00 53 1016.7
20260902013013 74 127 0.0 0.0 0.00 0.00 0.00 53 1016.4
20260902011506 74 127 1.0 3.0 0.00 0.00 0.00 54 1016.7